Regional Weather Roundup
Issued by NWS

Home | Current Version | Previous Version | Text Only | Print | Product List | Glossary On
Versions: 1 2 3 4 5 6 7 8 9 10 11 12 13 14 15 16 17 18 19 20 21 22 23 24 25 26 27 28 29 30 31 32 33 34 35 36 37 38 39 40 41 42 43 44 45 46 47 48 49 50
000
ASUS45 KSLC 201010
RWRUT

UTAH REGIONAL WEATHER ROUNDUP
NATIONAL WEATHER SERVICE SALT LAKE CITY UT
400 AM MDT SAT SEP 20 2014

UTZ001>011-023>025-201100-

NORTHERN UTAH

CITY           SKY/WX    TMP DP  RH WIND       PRES   REMARKS
HILL AFB       CLEAR     61  44  53 SE18      30.14S
LOGAN          CLEAR     52  48  86 NE5       30.16S
OGDEN          CLEAR     62  44  51 SW7       30.12S
PROVO AIRPORT  CLEAR     57  50  77 CALM      30.15R
SALT LAKE CITY CLEAR     60  50  69 SW5       30.11S
VERNAL         CLEAR     57  42  57 CALM      30.17R
WENDOVER       CLEAR     64  45  48 CALM      30.13R
HEBER CITY     CLEAR     46  43  87 CALM      30.24R
WEST JORDAN    CLEAR     61  46  59 W7        30.14S

$$

UTZ012>022-026-027-201100-

SOUTHERN UTAH

CITY           SKY/WX    TMP DP  RH WIND       PRES   REMARKS
BRYCE CANYON   CLEAR     47  42  83 W9        30.30S
CEDAR CITY     CLEAR     58  44  60 S3        30.15S
MILFORD        CLEAR     61  44  53 CALM      30.12R
MOAB/CYNLANDS  CLEAR     61  43  51 W5        30.04R
PRICE          CLEAR     62  42  47 N9        30.16F
ST GEORGE      SUNNY     73  45  35 CALM      29.97S
KANAB            N/A     59  46  63 N5        30.14S

$$

REGIONAL REPORTS     COLORADO/ARIZONA

CITY           SKY/WX    TMP DP  RH WIND       PRES   REMARKS
CRAIG, CO      CLEAR     45  41  86 E5        30.25R
GRAND JUNCTION CLEAR     62  44  51 SE5       30.09R
RIFLE          CLEAR     54  44  69 CALM      30.18R
MONTROSE       CLEAR     59  43  55 SE9       30.18S
CORTEZ         CLEAR     50  45  83 NE7       30.14S
PAGE, AZ       CLEAR     72  50  45 SW3       30.03S
GRAND CANYON   CLEAR     49  48  97 NE5       30.21S
KINGMAN        CLEAR     63  48  58 SE5       30.00S
FLAGSTAFF        N/A     50  47  89 MISG      30.23S

$$

REGIONAL REPORTS    NEVADA/IDAHO/WYOMING

CITY           SKY/WX    TMP DP  RH WIND       PRES   REMARKS
LAS VEGAS, NV  MOCLDY    80  42  25 SW8       29.86S
ELY            PTCLDY    48  33  56 S8        30.23F
ELKO           CLEAR     52  38  58 CALM      30.15S
POCATELLO, ID  CLEAR     50  45  83 CALM      30.18R
BURLEY         CLEAR     51  42  71 CALM      30.15R
EVANSTON, WY   CLEAR     53  38  56 S6        30.30S
ROCK SPRINGS   PTCLDY    49  34  56 SW6       30.28R

$$



USA.gov is the U.S. government's official web portal to all federal, state and local government web resources and services.